Preview of NWS' New Version of Forecast
This preview is not operational and should not be used for support decisions.

Regional Weather Roundup (RWR)

Issued by National Weather Service (NWS)

                            
000
ASUS44 KMEG 181100
RWRTN 
TENNESSEE HOURLY STATE WEATHER ROUNDUP
NATIONAL WEATHER SERVICE MEMPHIS TN
600 AM CDT MON MAR 18 2019

TNZ002-004-019-021-049-052-054-088>092-181200-
WEST TENNESSEE
  
CITY           SKY/WX    TMP DP  RH WIND       PRES   REMARKS
MEMPHIS INTL   MOCLDY    45  29  53 NE8       30.33R                  
NWS MEMPHIS      N/A     40 N/A N/A MISG        N/A                   
JACKSON        FAIR      37  28  70 NE3       30.35R                  
DYERSBURG      FAIR      42  32  67 NE6       30.37R                  
$$

TNZ008-025-027-028-033-062-065-066-181200-
NORTH MIDDLE TENNESSEE
  
CITY           SKY/WX    TMP DP  RH WIND       PRES   REMARKS
NASHVILLE      FAIR      38  27  64 N6        30.34R WCI  33          
CLARKSVILLE    CLOUDY    34  28  79 CALM      30.35R                  
SMYRNA         FAIR      32  27  81 N5        30.35R WCI  27          
CROSSVILLE     FAIR      32  25  75 N7        30.25S WCI  26          
$$

TNZ061-075-076-078-094-096-097-181200-
SOUTH MIDDLE TENNESSEE
  
CITY           SKY/WX    TMP DP  RH WIND       PRES   REMARKS
FAYETTEVILLE   CLEAR     37  30  75 NE9       30.27R WCI  31          
$$

TNZ017-018-042-046-047-181200-
NORTHEAST TENNESSEE
  
CITY           SKY/WX    TMP DP  RH WIND       PRES   REMARKS
TRI CITIES     FAIR      32  26  78 CALM      30.22R                  
$$

TNZ012-013-036-069-073-074-181200-
CENTRAL EAST TENNESSEE
  
CITY           SKY/WX    TMP DP  RH WIND       PRES   REMARKS
KNOXVILLE      FAIR      40  27  59 N9        30.25R WCI  34          
OAK RIDGE      FAIR      39  27  62 CALM      30.29R                  
$$

TNZ083-085-099-181200-
SOUTHEAST TENNESSEE
  
CITY           SKY/WX    TMP DP  RH WIND       PRES   REMARKS
CHATTANOOGA    FAIR      41  27  57 N7        30.27R                  
$$

SKY/WX REPORTED AS FAIR MEANS FEW OR NO CLOUDS BELOW
12 THOUSAND FEET.